Location: Abraham Lincoln Continuation High School
(33.9711°N, 117.3662°W)
Time: 13:49:21
(UTC+00:00)

Lacrosse 5 - Pass Details

Date: 21 September 2020
Orbit: 716 x 723 km, 57.0° (Epoch: 27 October)

Event Time Altitude Azimuth Distance (km) Brightness Sun altitude
Exits shadow 11:20:43 12° 343° (NNW) 2,040 4.2 -28.5°
Drops below altitude 10° 11:21:58 10° 357° (N) 2,203 4.6 -28.2°
Sets 11:25:43 0° 25° (NNE) 3,127 5.8 -27.5°
